This is the latest recevied weather packets stored in our database for station/object OE3APM-13. If no packets are shown the sender has not sent any weather packets the latest 10 day(s).
| Time | Temp. | Humidity | Pressure | Rain* | Wind** | Luminosity | Snow |
|---|---|---|---|---|---|---|---|
| 1777900273 | 25.56° C | 35% | 1013 hPa | 0 mm | - | 689 W/m² | - |
| 1777899969 | 25.56° C | 36% | 1013 hPa | 0 mm | - | 703 W/m² | - |
| 1777899668 | 25.56° C | 35% | 1013.2 hPa | 0 mm | - | 657 W/m² | - |
| 1777899368 | 25.56° C | 36% | 1013.3 hPa | 0 mm | - | 545 W/m² | - |
| 1777899067 | 25.56° C | 37% | 1013.3 hPa | 0 mm | - | 664 W/m² | - |
| 1777898767 | 25.56° C | 38% | 1013.3 hPa | 0 mm | - | 617 W/m² | - |
| 1777898467 | 25.56° C | 39% | 1013.4 hPa | 0 mm | - | 780 W/m² | - |
| 1777898165 | 25.56° C | 38% | 1013.3 hPa | 0 mm | - | 773 W/m² | - |
| 1777897866 | 25.56° C | 38% | 1013.4 hPa | 0 mm | - | 687 W/m² | - |
| 1777897566 | 25° C | 39% | 1013.4 hPa | 0 mm | - | 731 W/m² | - |
| 1777897263 | 25° C | 41% | 1013.4 hPa | 0 mm | - | 598 W/m² | - |
| 1777896964 | 24.44° C | 41% | 1013.5 hPa | 0 mm | - | 573 W/m² | - |
| 1777896665 | 24.44° C | 40% | 1013.5 hPa | 0 mm | - | 589 W/m² | - |
| 1777896364 | 24.44° C | 39% | 1013.6 hPa | 0 mm | - | 503 W/m² | - |
| 1777896067 | 24.44° C | 36% | 1013.6 hPa | 0 mm | - | 842 W/m² | - |
| 1777895761 | 24.44° C | 40% | 1013.6 hPa | 0 mm | - | 670 W/m² | - |
| 1777895462 | 24.44° C | 37% | 1013.7 hPa | 0 mm | - | 598 W/m² | - |
| 1777895161 | 23.89° C | 36% | 1013.8 hPa | 0 mm | - | 622 W/m² | - |
| 1777894862 | 23.89° C | 39% | 1013.9 hPa | 0 mm | - | 679 W/m² | - |
| 1777894562 | 23.89° C | 40% | 1013.9 hPa | 0 mm | - | 779 W/m² | - |
| 1777894261 | 23.89° C | 38% | 1014 hPa | 0 mm | - | 802 W/m² | - |
| 1777893962 | 23.89° C | 38% | 1014 hPa | 0 mm | - | 466 W/m² | - |
| 1777893661 | 23.89° C | 43% | 1014 hPa | 0 mm | - | 882 W/m² | - |
| 1777893361 | 23.89° C | 38% | 1014.1 hPa | 0 mm | - | 858 W/m² | - |
| 1777893062 | 23.89° C | 39% | 1014 hPa | 0 mm | - | 795 W/m² | - |
* Rain latest hour (hover to see other rain measurements)
** Current wind speed in m/s (hover to see current wind gust speed)